Terminal Aerodrome Forecast
Issued by NWS

Home | Current Version | Previous Version | Graphics & Text | Print | Product List | Glossary On
Versions: 1 2 3 4 5 6 7 8 9 10 11 12 13 14 15 16 17 18 19 20
000
FTUS43 KABR 011610 AAC
TAFATY
TAF AMD
KATY 011610Z 0116/0212 VRB05KT P6SM VCSH FEW010 OVC026
     FM012000 14010KT P6SM -RA VCTS OVC050CB
     FM020200 VRB06KT P6SM VCSH SCT070 BKN100=

USA.gov is the U.S. government's official web portal to all federal, state and local government web resources and services.